Location: Unspecified
(52.0000°N, 19.0000°E)
Time: 21:25:18
(UTC+00:00)

ISS - Visible Passes

Search period start: 16 September 2021 00:00
Search period end: 26 September 2021 00:00
Orbit: 419 x 423 km, 51.6° (Epoch: 16 September)

Date Brightness Start Highest point End Pass type
(mag) Time Alt. Az. Time Alt. Az. Time Alt. Az.
16 Sep -1.4 18:51:44 10° SSW 18:52:24 14° SSW 18:52:24 14° SSW visible
17 Sep -2.1 18:05:29 10° S 18:07:48 17° SE 18:08:02 17° SE visible
17 Sep -0.9 19:40:51 10° WSW 19:41:04 12° WSW 19:41:04 12° WSW visible
18 Sep -2.8 18:54:06 10° SW 18:56:29 35° SSW 18:56:29 35° SSW visible
19 Sep -2.9 18:07:27 10° SW 18:10:32 33° SSE 18:11:43 25° ESE visible
19 Sep -1.2 19:43:47 10° WSW 19:44:44 18° WSW 19:44:44 18° WSW visible
20 Sep -2.4 17:20:57 10° SSW 17:23:46 25° SSE 17:26:35 10° E visible
20 Sep -3.5 18:56:55 10° WSW 18:59:50 59° SW 18:59:50 59° SW visible
21 Sep -3.6 18:10:05 10° WSW 18:13:25 58° SSE 18:14:50 30° E visible
21 Sep -1.2 19:46:48 10° W 19:47:50 18° W 19:47:50 18° W visible
22 Sep -3.3 17:23:19 10° SW 17:26:33 45° SSE 17:29:46 10° E visible
22 Sep -3.4 18:59:54 10° W 19:02:46 61° W 19:02:46 61° W visible
23 Sep -3.8 18:13:00 10° W 18:16:23 81° S 18:17:39 36° E visible
23 Sep -0.9 19:49:50 10° W 19:50:38 16° W 19:50:38 16° W visible
24 Sep -3.7 17:26:07 10° WSW 17:29:29 71° SSE 17:32:29 13° E visible
24 Sep -2.9 19:02:55 10° W 19:05:28 48° W 19:05:28 48° W visible
25 Sep -3.8 18:15:59 10° W 18:19:22 86° S 18:20:17 46° E visible
25 Sep -0.6 19:52:51 10° W 19:53:16 13° W 19:53:16 13° W visible
